Weather Roundup
Issued by NWS

Home | Current Version | Previous Version | Graphics & Text | Print | Product List | Glossary Off
Versions: 1 2 3 4 5 6 7 8 9 10 11 12 13 14 15 16 17 18 19 20 21 22 23 24 25 26 27 28 29 30 31 32 33 34 35 36 37 38 39 40 41 42 43 44 45 46 47 48 49 50

000
NZUS93 KARX 030759
HRRWXR

CURRENT HOURLY OBSERVATIONS ACROSS
MUCH OF THE UPPER MISSISSIPPI VALLEY
NATIONAL WEATHER SERVICE LA CROSSE WI
200 AM CST TUE MAR 03 2015


...SOUTHEAST MINNESOTA...


CITY           SKY/WX    TMP DP  RH WIND       PRES   REMARKS
ROCHESTER      CLOUDY    21  13  71 SE13      29.94F WCI   9
ROCHESTER/MAYO CLOUDY    22  11  63 SE10      29.95F WCI  11
WINONA         CLOUDY    25  14  63 SE8       30.02F WCI  16
AUSTIN         CLOUDY    21  16  79 SE10      29.92F WCI  10
ALBERT LEA     CLOUDY    21  18  86 SE12      29.90F WCI   9
DODGE CENTER   CLOUDY    21  18  86 SE16      29.91F WCI   7
PRESTON        CLOUDY    21  14  75 SE9       29.96F WCI  11
OWATONNA       CLOUDY    23  16  74 SE13      29.91F WCI  11
FARIBAULT      CLOUDY    23  16  74 SE9       29.93F WCI  13
$$

...ELSEWHERE IN MINNESOTA...


CITY           SKY/WX    TMP DP  RH WIND       PRES   REMARKS
MINNEAPOLIS    CLOUDY    22  11  62 SE8       29.94F WCI  12
INTNL FALLS    CLOUDY    24  11  57 S9G18     29.74F WCI  14
DULUTH         CLOUDY    20   5  52 S15       29.87F WCI   6
RED WING       CLOUDY    23  12  63 SE7       29.97F WCI  15
REDWOOD FALLS  CLOUDY    23  18  81 SE15      29.86F WCI  10
MANKATO        CLOUDY    23  16  74 SE14      29.90F WCI  11
FAIRMONT       CLOUDY    23  18  80 SE14      29.85F WCI  11
$$

...SOUTHWEST WISCONSIN...


CITY           SKY/WX    TMP DP  RH WIND       PRES   REMARKS
LA CROSSE      CLOUDY    26  15  63 SE6       30.03F WCI  19
PRAIRIE DU CHI CLOUDY    25  16  69 SE8       30.05F WCI  16
BOSCOBEL       CLOUDY    26  17  68 CALM      30.06F
LONE ROCK      NOT AVBL
PLATTEVILLE    CLOUDY    24  19  80 E9        30.03F WCI  15
FORT MC COY    CLOUDY    24  15  69 SE7       30.05F WCI  16
VIROQUA        CLOUDY    22  17  78 SE9       30.02F WCI  12
WIS DELLS      NOT AVBL
$$

...ELSEWHERE IN WISCONSIN...


CITY           SKY/WX    TMP DP  RH WIND       PRES   REMARKS
MILWAUKEE      CLOUDY    25  16  68 S3        30.16F
MADISON        CLOUDY    24  14  65 SE8       30.08F WCI  15
GREEN BAY      LGT SNOW  23  20  88 S9        30.14F VSB 1   WCI  13
EAU CLAIRE     NOT AVBL
BLACK RVR FLS  CLOUDY    25  13  60 CALM      30.04F
MEDFORD        LGT SNOW  19  16  86 S9        30.01F WCI   8
WAUSAU         FLURRIES  20  17  88 S7        30.04F WCI  11
WIS RAPIDS     CLOUDY    22  12  65 SE6       30.07F WCI  14
MARSHFIELD     CLOUDY    21  16  81 SE6       30.03F WCI  13
RICE LAKE      LGT SNOW  19  16  88 SE7       30.00F WCI  10
$$

...NORTHEAST IOWA...


CITY           SKY/WX    TMP DP  RH WIND       PRES   REMARKS
DECORAH        CLOUDY    23  18  80 SE9       29.99F WCI  13
MASON CITY     CLOUDY    23  17  78 SE14      29.92F WCI  11
CHARLES CITY   CLOUDY    25  19  80 SE15      29.97F WCI  12
OELWEIN        CLOUDY    23  19  86 SE15      29.98F WCI  10
$$

...ELSEWHERE IN IOWA...


CITY           SKY/WX    TMP DP  RH WIND       PRES   REMARKS
DES MOINES     CLOUDY    30  21  69 SE14      29.91F WCI  19
IOWA CITY      MIX PCPN  27  21  78 SE14      30.03F WCI  16
FORT DODGE     CLOUDY    27  18  69 SE8       29.88F WCI  18
$$

...NORTHERN ILLINOIS...


CITY           SKY/WX    TMP DP  RH WIND       PRES   REMARKS
CHICAGO-OHARE  CLOUDY    26  17  68 SE9       30.16F WCI  17
CHICAGO-MIDWAY CLOUDY    28  17  63 SE8       30.17F WCI  20
MOLINE         CLOUDY    27  18  69 SE7       30.05F WCI  19
ROCKFORD       CLOUDY    24  17  74 SE10      30.12F WCI  14
PEORIA         MIX PCPN  28  20  71 SE7       30.11F WCI  21
$$

NOTE: "FAIR" INDICATES FEW OR NO CLOUDS BELOW 12,000 FEET WITH NO
SIGNIFICANT WEATHER AND/OR OBSTRUCTIONS TO VISIBILITY. WIND
SPEEDS ARE IN MILES-PER-HOUR.



USA.gov is the U.S. government's official web portal to all federal, state and local government web resources and services.